Location: *
(1.3500°S, 147.5000°W)
Time: 13:18:30
(UTC+00:00)

ISS - Pass Details

Date: 19 June 2021
Orbit: 419 x 421 km, 51.6° (Epoch: 27 July)

Event Time Altitude Azimuth Distance (km) Brightness Sun altitude
Exits shadow 14:29:13 25° 327° (NNW) 870 -2.3 -19.4°
Drops below altitude 10° 14:31:28 10° 6° (N) 1,485 -0.6 -18.9°
Sets 14:33:44 0° 18° (NNE) 2,344 0.7 -18.3°
